Regional Weather Roundup
Issued by NWS

Home | Current Version | Previous Version | Graphics & Text | Print | Product List | Glossary Off
Versions: 1 2 3 4 5 6 7 8 9 10 11 12 13 14 15 16 17 18 19 20 21 22 23 24 25 26 27 28 29 30 31 32 33 34 35 36 37 38 39 40 41 42 43 44 45 46 47 48 49 50

000
ASUS43 KTOP 261608
RWRKS

WEATHER ROUNDUP FOR KANSAS
NATIONAL WEATHER SERVICE GOODLAND KS
1100 AM CDT SUN APR 26 2015

NOTE:  "FAIR" INDICATES FEW OR NO CLOUDS BELOW 12,000 FEET WITH NO
SIGNIFICANT WEATHER AND/OR OBSTRUCTIONS TO VISIBILITY.

KSZ001>006-013>018-027>032-041>047-261700-
NORTHWEST KANSAS

CITY           SKY/WX    TMP DP  RH WIND       PRES   REMARKS
GOODLAND       CLOUDY    43  42  97 E17       29.91F
HAYS           CLOUDY    48  39  71 E16       29.92R
HILL CITY      CLOUDY    48  43  82 E16       29.94S
RUSSELL        LGT RAIN  48  47  96 NE18      29.90S FOG
$$

KSZ061>065-074>080-084>089-261700-
SOUTHWEST KANSAS

CITY           SKY/WX    TMP DP  RH WIND       PRES   REMARKS
DODGE CITY     CLOUDY    47  45  93 E15       29.87R FOG
ELKHART          N/A     51  43  74 E15         N/A
GARDEN CITY    CLOUDY    45  44  97 E18       29.86R FOG
GREAT BEND     CLOUDY    48  43  81 E15       29.91S
LIBERAL        CLOUDY    50  45  81 E17G23    29.84R
$$

KSZ066>073-081>083-090>101-261700-
SOUTHEAST KANSAS

CITY           SKY/WX    TMP DP  RH WIND       PRES   REMARKS
CHANUTE        CLOUDY    55  48  77 NE15      29.90S
COFFEYVILLE    CLOUDY    55  50  83 NE13      29.88S
HUTCHINSON     CLOUDY    52  48  86 E12       29.90R
MEDICINE LODGE   N/A     51  48  89 E9G21     29.86S
NEWTON         CLOUDY    50  45  81 E13       29.92S
PARSONS        CLOUDY    55  49  80 NE7G17    29.90S
WICHITA INTL   DRIZZLE   53  48  83 E15       29.89R
WICHITA JABRA  CLOUDY    51  48  89 E16       29.90R
WICHITA MCCONL CLOUDY    52  48  87 NE12      29.89R
WINFIELD       CLOUDY    53  49  86 E15G23    29.88S
$$

KSZ007>012-019>026-033>040-048>060-102>105-261700-
NORTHEAST KANSAS

CITY           SKY/WX    TMP DP  RH WIND       PRES   REMARKS
CONCORDIA      CLOUDY    48  44  86 NE13      29.97R
EMPORIA        CLOUDY    50  46  86 E13       29.93R
LAWRENCE       CLOUDY    51  43  74 E13       29.98R
MANHATTAN      CLOUDY    50  46  86 E12       29.97R FOG
MARYSVILLE     CLOUDY    46  43  87 E9        30.00R
OLATHE IND     CLOUDY    50  44  80 NE9       29.97S
OLATHE EXE     CLOUDY    50  43  77 NE13      29.96R
SALINA         CLOUDY    50  47  89 NE10      29.94R
TOPEKA BILLARD CLOUDY    51  44  77 E12       29.98R
TOPEKA FORBES  CLOUDY    50  44  80 NE9       29.96R
$$


USA.gov is the U.S. government's official web portal to all federal, state and local government web resources and services.